カタログに戻る

DMSP 5D-2 F13 DEB

運用中PO
NORAD 42308·DEBRIS·🇺🇸 United States

打ち上げ Mar 24, 1995 から Vandenberg Space Force Base

Loading…

次のパス (今後24時間)

TLE

最新Source: Space-Track

元期: Sep 12, 2026, 09:29 UTC

1 42308U 95015JA  26255.39540172  .00009456  00000-0  18058-2 0  9996
2 42308  98.8750 317.2862 0010476 301.9588  58.0593 14.64136204590620

AllMySatでDMSP 5D-2 F13 DEBをリアルタイム追跡

Download on the App Store